User: anonymous   Login
Location: Bijele Vode
(45.2833°N, 16.2000°E)
Time: 03:45:43
(UTC+00:00)
Language:

XW-2A - Orbit

View from above orbital plane
View from above orbital plane
View from above satellite
View from above satellite

Ground track
Ground track

The orbit data is extracted from the following two-line orbital elements,

1 40903U 15049E   21332.91019384  .00005592  00000-0  11200-3 0  9999
2 40903  97.2145  26.8522 0013156 129.0298  43.4163 15.47056991348203
Epoch (UTC): 28 November 2021 21:50:40
Eccentricity: 0.0013156
inclination: 97.2145°
perigee height: 416 km
apogee height: 434 km
right ascension of ascending node: 26.8522°
argument of perigee: 129.0298°
revolutions per day: 15.47056991
mean anomaly at epoch: 43.4163°
orbit number at epoch: 34820

The dashed part of the orbit path shows where the satellite is in the earth's shadow,  

DLR